{"data":{"norad_id":65717,"epoch":"2026-09-20T10:17:42.162144Z","epoch_age_seconds":155857,"freshness":"FRESH","line1":"1 65717U 25214F   26263.42896021  .00000959  00000+0  14227-3 0  9992","line2":"2 65717  49.9790 226.8905 0012546 220.0563 139.9450 14.83619430 53642","mean_motion":14.8361943,"eccentricity":0.0012546,"inclination_deg":49.979,"raan_deg":226.8905,"arg_perigee_deg":220.0563,"mean_anomaly_deg":139.945,"bstar":0.00014227,"rev_number":5364,"period_min":97.059931332929,"perigee_km":609.14532967458,"apogee_km":626.69984238785,"semimajor_km":6996.0595860312,"source":"CELESTRAK","updated_at":"2026-09-21T09:00:15.523024Z"}}